Hoquiam, WA
on Sunday, February 17, 2013

Sunday
Previous Day Next Day
Daily Summary
 ActualAverageRecord
Temperature
Mean Temperature °F 44°F  
Max Temperature 46°F 50°F 59°F (1957)
Min Temperature 35°F 38°F 28°F (1955)
Degree Days
Heating Degree Days 24 21  
Month to date heating degree days 367  
Cooling Degree Days 0 0  
Month to date cooling degree days 0  
Year to date cooling degree days 0  
Moisture
Dew Point 37°F   
Average Humidity 84    
Maximum Humidity 100    
Minimum Humidity 71    
Precipitation
Precipitation 0.04 in 0.25 in 1.70 in (1979)
Month to date precipitation 4.56  
Year to date precipitation 14.89  
Wind
Wind Speed 6 mph   
Max Wind Speed 12 mph   
Max Gust Speed mph   
Visibility 10 miles   
Events Rain   

Key: T is trace of precipitation, MM is missing value
Source: NWS Daily Summary
Time(PST)TemperatureDew PointHumidity Pressure Visibility Wind DirectionWind SpeedGust SpeedPrecipitationEvents Conditions
12:53 AM 43.0°F 36.0°F 76% 30.27 in 10.0 miles West 10.4 mph - N/A   Scattered Clouds
1:53 AM 42.1°F 35.1°F 76% 30.27 in 10.0 miles West 6.9 mph - 0.00 in Rain Light Rain
2:53 AM 41.0°F 36.0°F 82% 30.27 in 10.0 miles WNW 11.5 mph - 0.01 in   Overcast
3:53 AM 41.0°F 36.0°F 82% 30.26 in 10.0 miles Calm Calm - N/A   Overcast
4:53 AM 35.6°F 35.6°F 100% 30.25 in 10.0 miles Calm Calm - N/A   Clear
5:18 AM 39.2°F 35.6°F 87% 30.25 in 10.0 miles Calm Calm - N/A   Mostly Cloudy
5:33 AM 39.2°F 35.6°F 87% 30.25 in 10.0 miles North 4.6 mph - N/A   Overcast
5:53 AM 37.0°F 35.1°F 93% 30.26 in 10.0 miles Calm Calm - N/A   Scattered Clouds
6:53 AM 37.9°F 36.0°F 93% 30.25 in 9.0 miles NNE 4.6 mph - 0.00 in   Overcast
7:08 AM 37.4°F 35.6°F 93% 30.24 in 10.0 miles Calm Calm - 0.00 in   Mostly Cloudy
7:53 AM 37.0°F 37.0°F 100% 30.26 in 10.0 miles NE 3.5 mph - 0.01 in   Overcast
8:53 AM 39.0°F 37.9°F 96% 30.27 in 10.0 miles Calm Calm - N/A   Mostly Cloudy
9:53 AM 43.0°F 39.0°F 86% 30.26 in 10.0 miles Calm Calm - 0.01 in Rain Light Rain
10:53 AM 45.0°F 39.0°F 80% 30.26 in 10.0 miles South 3.5 mph - N/A   Overcast
11:53 AM 46.9°F 39.9°F 77% 30.26 in 10.0 miles SSW 11.5 mph - N/A   Mostly Cloudy
12:53 PM 46.0°F 37.9°F 73% 30.24 in 10.0 miles SW 8.1 mph - 0.00 in   Mostly Cloudy
1:53 PM 46.9°F 39.0°F 74% 30.23 in 10.0 miles WSW 10.4 mph - N/A   Mostly Cloudy
2:53 PM 46.0°F 37.0°F 71% 30.22 in 10.0 miles WSW 10.4 mph - 0.00 in   Overcast
3:53 PM 46.0°F 37.0°F 71% 30.21 in 10.0 miles WSW 9.2 mph - N/A   Mostly Cloudy
4:53 PM 45.0°F 37.0°F 74% 30.19 in 10.0 miles West 5.8 mph - N/A   Clear
5:53 PM 44.1°F 37.0°F 76% 30.18 in 10.0 miles WSW 6.9 mph - N/A   Clear
6:53 PM 44.1°F 36.0°F 73% 30.18 in 10.0 miles WSW 6.9 mph - N/A   Overcast
7:53 PM 42.1°F 37.9°F 85% 30.18 in 10.0 miles Calm Calm - 0.01 in   Overcast
9:17 PM 41.0°F 37.4°F 87% 30.15 in 10.0 miles Calm Calm - N/A   Mostly Cloudy
9:53 PM 42.1°F 37.9°F 85% 30.15 in 10.0 miles South 8.1 mph - N/A   Overcast
10:00 PM 42.8°F 37.4°F 81% 30.14 in 10.0 miles South 9.2 mph - N/A   Overcast
10:39 PM 41.0°F 37.4°F 87% 30.13 in 10.0 miles ESE 3.5 mph - N/A   Mostly Cloudy
10:53 PM 39.9°F 37.0°F 89% 30.13 in 10.0 miles East 4.6 mph - N/A   Scattered Clouds
11:53 PM 39.0°F 37.0°F 93% 30.11 in 10.0 miles Calm Calm - N/A   Clear
Moon Phase
Feb. 17 Feb. 17 Feb. 25 Mar. 04 Mar. 11
Sunrise:07:16 AM (PST) Moon Rise:10:42 AM (PST)2/17
Sunset:05:43 PM (PST) Moon Set:01:14 AM (PST)2/17

Copyright © 2014 The Weather Underground, Inc.